Orbital Elements at Epoch 2459200.5 (2020-Dec-17.0) TDB
Reference: JPL 20 (heliocentric ecliptic J2000)
Element | Value | Uncertainty (1-sigma) | Units |
e | .1302635204293537 | 4.0346e-08 | |
a | 2.374464232722064 | 9.9963e-09 | au |
q | 2.065158162634104 | 9.5063e-08 | au |
i | 4.394242334604598 | 5.4096e-06 | deg |
node | 22.10816535185148 | 6.6689e-05 | deg |
peri | 75.94569243238614 | 7.0801e-05 | deg |
M | 24.28387810651184 | 2.4388e-05 | deg |
tp | 2459110.350687623475 (2020-Sep-17.85068762) | 9.0354e-05 | TDB |
period | 1336.432027586505 3.66 | 8.4394e-06 2.311e-08 | d yr |
n | .2693739693219809 | 1.7011e-09 | deg/d |
Q | 2.683770302810024 | 1.1298e-08 | au |
|
| | Orbit Determination Parameters
Additional Information
|